#datetime,building,power
2022-08-14T00:00:00,lib,85.00
2022-08-14T00:01:00,lib,91.00
2022-08-14T00:02:00,lib,91.00
2022-08-14T00:03:00,lib,95.00
2022-08-14T00:04:00,lib,100.00
2022-08-14T00:05:00,lib,100.00
2022-08-14T00:06:00,lib,98.00
2022-08-14T00:07:00,lib,84.00
2022-08-14T00:08:00,lib,83.00
2022-08-14T00:09:00,lib,92.00
2022-08-14T00:10:00,lib,93.00
2022-08-14T00:11:00,lib,99.00
2022-08-14T00:12:00,lib,96.00
2022-08-14T00:13:00,lib,97.00
2022-08-14T00:14:00,lib,85.00
2022-08-14T00:15:00,lib,85.00
2022-08-14T00:16:00,lib,84.00
2022-08-14T00:17:00,lib,88.00
2022-08-14T00:18:00,lib,107.00
2022-08-14T00:19:00,lib,96.00
2022-08-14T00:20:00,lib,97.00
2022-08-14T00:21:00,lib,96.00
2022-08-14T00:22:00,lib,87.00
2022-08-14T00:23:00,lib,86.00
2022-08-14T00:24:00,lib,84.00
2022-08-14T00:25:00,lib,93.00
2022-08-14T00:26:00,lib,94.00
2022-08-14T00:27:00,lib,97.00
2022-08-14T00:28:00,lib,97.00
2022-08-14T00:29:00,lib,115.00
2022-08-14T00:30:00,lib,98.00
2022-08-14T00:31:00,lib,84.00
2022-08-14T00:32:00,lib,85.00
2022-08-14T00:33:00,lib,92.00
2022-08-14T00:34:00,lib,93.00
2022-08-14T00:35:00,lib,97.00
2022-08-14T00:36:00,lib,99.00
2022-08-14T00:37:00,lib,96.00
2022-08-14T00:38:00,lib,83.00
2022-08-14T00:39:00,lib,83.00
2022-08-14T00:40:00,lib,85.00
2022-08-14T00:41:00,lib,106.00
2022-08-14T00:42:00,lib,106.00
2022-08-14T00:43:00,lib,96.00
2022-08-14T00:44:00,lib,97.00
2022-08-14T00:45:00,lib,96.00
2022-08-14T00:46:00,lib,83.00
2022-08-14T00:47:00,lib,83.00
2022-08-14T00:48:00,lib,83.00
2022-08-14T00:49:00,lib,92.00
2022-08-14T00:50:00,lib,92.00
2022-08-14T00:51:00,lib,98.00
2022-08-14T00:52:00,lib,95.00
2022-08-14T00:53:00,lib,110.00
2022-08-14T00:54:00,lib,83.00
2022-08-14T00:55:00,lib,82.00
2022-08-14T00:56:00,lib,85.00
2022-08-14T00:57:00,lib,89.00
2022-08-14T00:58:00,lib,93.00
2022-08-14T00:59:00,lib,94.00
2022-08-14T01:00:00,lib,96.00
2022-08-14T01:01:00,lib,95.00
2022-08-14T01:02:00,lib,82.00
2022-08-14T01:03:00,lib,82.00
2022-08-14T01:04:00,lib,82.00
2022-08-14T01:05:00,lib,108.00
2022-08-14T01:06:00,lib,91.00
2022-08-14T01:07:00,lib,95.00
2022-08-14T01:08:00,lib,94.00
2022-08-14T01:09:00,lib,96.00
2022-08-14T01:10:00,lib,83.00
2022-08-14T01:11:00,lib,83.00
2022-08-14T01:12:00,lib,83.00
2022-08-14T01:13:00,lib,88.00
2022-08-14T01:14:00,lib,90.00
2022-08-14T01:15:00,lib,96.00
2022-08-14T01:16:00,lib,97.00
2022-08-14T01:17:00,lib,110.00
2022-08-14T01:18:00,lib,82.00
2022-08-14T01:19:00,lib,82.00
2022-08-14T01:20:00,lib,83.00
2022-08-14T01:21:00,lib,91.00
2022-08-14T01:22:00,lib,92.00
2022-08-14T01:23:00,lib,99.00
2022-08-14T01:24:00,lib,97.00
2022-08-14T01:25:00,lib,99.00
2022-08-14T01:26:00,lib,83.00
2022-08-14T01:27:00,lib,84.00
2022-08-14T01:28:00,lib,98.00
2022-08-14T01:29:00,lib,92.00
2022-08-14T01:30:00,lib,95.00
2022-08-14T01:31:00,lib,100.00
2022-08-14T01:32:00,lib,97.00
2022-08-14T01:33:00,lib,97.00
2022-08-14T01:34:00,lib,84.00
2022-08-14T01:35:00,lib,84.00
2022-08-14T01:36:00,lib,84.00
2022-08-14T01:37:00,lib,95.00
2022-08-14T01:38:00,lib,93.00
2022-08-14T01:39:00,lib,96.00
2022-08-14T01:40:00,lib,112.00
2022-08-14T01:41:00,lib,99.00
2022-08-14T01:42:00,lib,84.00
2022-08-14T01:43:00,lib,85.00
2022-08-14T01:44:00,lib,85.00
2022-08-14T01:45:00,lib,141.00
2022-08-14T01:46:00,lib,91.00
2022-08-14T01:47:00,lib,95.00
2022-08-14T01:48:00,lib,97.00
2022-08-14T01:49:00,lib,97.00
2022-08-14T01:50:00,lib,83.00
2022-08-14T01:51:00,lib,82.00
2022-08-14T01:52:00,lib,97.00
2022-08-14T01:53:00,lib,93.00
2022-08-14T01:54:00,lib,90.00
2022-08-14T01:55:00,lib,97.00
2022-08-14T01:56:00,lib,96.00
2022-08-14T01:57:00,lib,95.00
2022-08-14T01:58:00,lib,81.00
2022-08-14T01:59:00,lib,82.00
2022-08-14T02:00:00,lib,82.00
2022-08-14T02:01:00,lib,92.00
2022-08-14T02:02:00,lib,93.00
2022-08-14T02:03:00,lib,110.00
2022-08-14T02:04:00,lib,95.00
2022-08-14T02:05:00,lib,95.00
2022-08-14T02:06:00,lib,85.00
2022-08-14T02:07:00,lib,83.00
2022-08-14T02:08:00,lib,82.00
2022-08-14T02:09:00,lib,86.00
2022-08-14T02:10:00,lib,92.00
2022-08-14T02:11:00,lib,94.00
2022-08-14T02:12:00,lib,95.00
2022-08-14T02:13:00,lib,98.00
2022-08-14T02:14:00,lib,82.00
2022-08-14T02:15:00,lib,82.00
2022-08-14T02:16:00,lib,98.00
2022-08-14T02:17:00,lib,86.00
2022-08-14T02:18:00,lib,93.00
2022-08-14T02:19:00,lib,95.00
2022-08-14T02:20:00,lib,97.00
2022-08-14T02:21:00,lib,95.00
2022-08-14T02:22:00,lib,84.00
2022-08-14T02:23:00,lib,84.00
2022-08-14T02:24:00,lib,83.00
2022-08-14T02:25:00,lib,91.00
2022-08-14T02:26:00,lib,92.00
2022-08-14T02:27:00,lib,115.00
2022-08-14T02:28:00,lib,95.00
2022-08-14T02:29:00,lib,96.00
2022-08-14T02:30:00,lib,83.00
2022-08-14T02:31:00,lib,85.00
2022-08-14T02:32:00,lib,82.00
2022-08-14T02:33:00,lib,85.00
2022-08-14T02:34:00,lib,93.00
2022-08-14T02:35:00,lib,92.00
2022-08-14T02:36:00,lib,93.00
2022-08-14T02:37:00,lib,94.00
2022-08-14T02:38:00,lib,83.00
2022-08-14T02:39:00,lib,97.00
2022-08-14T02:40:00,lib,83.00
2022-08-14T02:41:00,lib,86.00
2022-08-14T02:42:00,lib,113.00
2022-08-14T02:43:00,lib,114.00
2022-08-14T02:44:00,lib,114.00
2022-08-14T02:45:00,lib,117.00
2022-08-14T02:46:00,lib,83.00
2022-08-14T02:47:00,lib,83.00
2022-08-14T02:48:00,lib,82.00
2022-08-14T02:49:00,lib,91.00
2022-08-14T02:50:00,lib,94.00
2022-08-14T02:51:00,lib,112.00
2022-08-14T02:52:00,lib,100.00
2022-08-14T02:53:00,lib,97.00
2022-08-14T02:54:00,lib,84.00
2022-08-14T02:55:00,lib,84.00
2022-08-14T02:56:00,lib,84.00
2022-08-14T02:57:00,lib,93.00
2022-08-14T02:58:00,lib,93.00
2022-08-14T02:59:00,lib,99.00
2022-08-14T03:00:00,lib,99.00
2022-08-14T03:01:00,lib,98.00
2022-08-14T03:02:00,lib,85.00
2022-08-14T03:03:00,lib,103.00
2022-08-14T03:04:00,lib,85.00
2022-08-14T03:05:00,lib,87.00
2022-08-14T03:06:00,lib,97.00
2022-08-14T03:07:00,lib,98.00
2022-08-14T03:08:00,lib,96.00
2022-08-14T03:09:00,lib,96.00
2022-08-14T03:10:00,lib,83.00
2022-08-14T03:11:00,lib,83.00
2022-08-14T03:12:00,lib,84.00
2022-08-14T03:13:00,lib,95.00
2022-08-14T03:14:00,lib,92.00
2022-08-14T03:15:00,lib,110.00
2022-08-14T03:16:00,lib,95.00
2022-08-14T03:17:00,lib,94.00
2022-08-14T03:18:00,lib,82.00
2022-08-14T03:19:00,lib,82.00
2022-08-14T03:20:00,lib,84.00
2022-08-14T03:21:00,lib,89.00
2022-08-14T03:22:00,lib,89.00
2022-08-14T03:23:00,lib,93.00
2022-08-14T03:24:00,lib,96.00
2022-08-14T03:25:00,lib,94.00
2022-08-14T03:26:00,lib,81.00
2022-08-14T03:27:00,lib,95.00
2022-08-14T03:28:00,lib,81.00
2022-08-14T03:29:00,lib,84.00
2022-08-14T03:30:00,lib,89.00
2022-08-14T03:31:00,lib,96.00
2022-08-14T03:32:00,lib,94.00
2022-08-14T03:33:00,lib,94.00
2022-08-14T03:34:00,lib,82.00
2022-08-14T03:35:00,lib,81.00
2022-08-14T03:36:00,lib,81.00
2022-08-14T03:37:00,lib,89.00
2022-08-14T03:38:00,lib,94.00
2022-08-14T03:39:00,lib,111.00
2022-08-14T03:40:00,lib,94.00
2022-08-14T03:41:00,lib,94.00
2022-08-14T03:42:00,lib,82.00
2022-08-14T03:43:00,lib,83.00
2022-08-14T03:44:00,lib,83.00
2022-08-14T03:45:00,lib,93.00
2022-08-14T03:46:00,lib,91.00
2022-08-14T03:47:00,lib,97.00
2022-08-14T03:48:00,lib,95.00
2022-08-14T03:49:00,lib,97.00
2022-08-14T03:50:00,lib,82.00
2022-08-14T03:51:00,lib,99.00
2022-08-14T03:52:00,lib,82.00
2022-08-14T03:53:00,lib,86.00
2022-08-14T03:54:00,lib,91.00
2022-08-14T03:55:00,lib,94.00
2022-08-14T03:56:00,lib,97.00
2022-08-14T03:57:00,lib,94.00
2022-08-14T03:58:00,lib,84.00
2022-08-14T03:59:00,lib,84.00
2022-08-14T04:00:00,lib,83.00
2022-08-14T04:01:00,lib,94.00
2022-08-14T04:02:00,lib,98.00
2022-08-14T04:03:00,lib,119.00
2022-08-14T04:04:00,lib,115.00
2022-08-14T04:05:00,lib,150.00
2022-08-14T04:06:00,lib,113.00
2022-08-14T04:07:00,lib,113.00
2022-08-14T04:08:00,lib,142.00
2022-08-14T04:09:00,lib,110.00
2022-08-14T04:10:00,lib,114.00
2022-08-14T04:11:00,lib,106.00
2022-08-14T04:12:00,lib,104.00
2022-08-14T04:13:00,lib,119.00
2022-08-14T04:14:00,lib,106.00
2022-08-14T04:15:00,lib,120.00
2022-08-14T04:16:00,lib,89.00
2022-08-14T04:17:00,lib,93.00
2022-08-14T04:18:00,lib,109.00
2022-08-14T04:19:00,lib,112.00
2022-08-14T04:20:00,lib,102.00
2022-08-14T04:21:00,lib,103.00
2022-08-14T04:22:00,lib,89.00
2022-08-14T04:23:00,lib,98.00
2022-08-14T04:24:00,lib,125.00
2022-08-14T04:25:00,lib,90.00
2022-08-14T04:26:00,lib,94.00
2022-08-14T04:27:00,lib,112.00
2022-08-14T04:28:00,lib,101.00
2022-08-14T04:29:00,lib,97.00
2022-08-14T04:30:00,lib,138.00
2022-08-14T04:31:00,lib,88.00
2022-08-14T04:32:00,lib,85.00
2022-08-14T04:33:00,lib,94.00
2022-08-14T04:34:00,lib,92.00
2022-08-14T04:35:00,lib,96.00
2022-08-14T04:36:00,lib,96.00
2022-08-14T04:37:00,lib,96.00
2022-08-14T04:38:00,lib,101.00
2022-08-14T04:39:00,lib,84.00
2022-08-14T04:40:00,lib,84.00
2022-08-14T04:41:00,lib,87.00
2022-08-14T04:42:00,lib,94.00
2022-08-14T04:43:00,lib,98.00
2022-08-14T04:44:00,lib,96.00
2022-08-14T04:45:00,lib,96.00
2022-08-14T04:46:00,lib,83.00
2022-08-14T04:47:00,lib,83.00
2022-08-14T04:48:00,lib,84.00
2022-08-14T04:49:00,lib,90.00
2022-08-14T04:50:00,lib,107.00
2022-08-14T04:51:00,lib,96.00
2022-08-14T04:52:00,lib,98.00
2022-08-14T04:53:00,lib,96.00
2022-08-14T04:54:00,lib,84.00
2022-08-14T04:55:00,lib,84.00
2022-08-14T04:56:00,lib,86.00
2022-08-14T04:57:00,lib,92.00
2022-08-14T04:58:00,lib,91.00
2022-08-14T04:59:00,lib,97.00
2022-08-14T05:00:00,lib,99.00
2022-08-14T05:01:00,lib,96.00
2022-08-14T05:02:00,lib,98.00
2022-08-14T05:03:00,lib,85.00
2022-08-14T05:04:00,lib,87.00
2022-08-14T05:05:00,lib,97.00
2022-08-14T05:06:00,lib,99.00
2022-08-14T05:07:00,lib,100.00
2022-08-14T05:08:00,lib,101.00
2022-08-14T05:09:00,lib,102.00
2022-08-14T05:10:00,lib,91.00
2022-08-14T05:11:00,lib,89.00
2022-08-14T05:12:00,lib,91.00
2022-08-14T05:13:00,lib,92.00
2022-08-14T05:14:00,lib,110.00
2022-08-14T05:15:00,lib,99.00
2022-08-14T05:16:00,lib,102.00
2022-08-14T05:17:00,lib,104.00
2022-08-14T05:18:00,lib,89.00
2022-08-14T05:19:00,lib,88.00
2022-08-14T05:20:00,lib,108.00
2022-08-14T05:21:00,lib,92.00
2022-08-14T05:22:00,lib,95.00
2022-08-14T05:23:00,lib,109.00
2022-08-14T05:24:00,lib,112.00
2022-08-14T05:25:00,lib,110.00
2022-08-14T05:26:00,lib,112.00
2022-08-14T05:27:00,lib,86.00
2022-08-14T05:28:00,lib,86.00
2022-08-14T05:29:00,lib,94.00
2022-08-14T05:30:00,lib,93.00
2022-08-14T05:31:00,lib,98.00
2022-08-14T05:32:00,lib,97.00
2022-08-14T05:33:00,lib,97.00
2022-08-14T05:34:00,lib,84.00
2022-08-14T05:35:00,lib,86.00
2022-08-14T05:36:00,lib,84.00
2022-08-14T05:37:00,lib,88.00
2022-08-14T05:38:00,lib,110.00
2022-08-14T05:39:00,lib,96.00
2022-08-14T05:40:00,lib,97.00
2022-08-14T05:41:00,lib,99.00
2022-08-14T05:42:00,lib,84.00
2022-08-14T05:43:00,lib,82.00
2022-08-14T05:44:00,lib,82.00
2022-08-14T05:45:00,lib,89.00
2022-08-14T05:46:00,lib,91.00
2022-08-14T05:47:00,lib,95.00
2022-08-14T05:48:00,lib,118.00
2022-08-14T05:49:00,lib,122.00
2022-08-14T05:50:00,lib,121.00
2022-08-14T05:51:00,lib,107.00
2022-08-14T05:52:00,lib,92.00
2022-08-14T05:53:00,lib,112.00
2022-08-14T05:54:00,lib,115.00
2022-08-14T05:55:00,lib,100.00
2022-08-14T05:56:00,lib,103.00
2022-08-14T05:57:00,lib,101.00
2022-08-14T05:58:00,lib,88.00
2022-08-14T05:59:00,lib,90.00
2022-08-14T06:00:00,lib,88.00
2022-08-14T06:01:00,lib,93.00
2022-08-14T06:02:00,lib,105.00
2022-08-14T06:03:00,lib,95.00
2022-08-14T06:04:00,lib,95.00
2022-08-14T06:05:00,lib,93.00
2022-08-14T06:06:00,lib,81.00
2022-08-14T06:07:00,lib,81.00
2022-08-14T06:08:00,lib,80.00
2022-08-14T06:09:00,lib,85.00
2022-08-14T06:10:00,lib,93.00
2022-08-14T06:11:00,lib,94.00
2022-08-14T06:12:00,lib,95.00
2022-08-14T06:13:00,lib,97.00
2022-08-14T06:14:00,lib,108.00
2022-08-14T06:15:00,lib,93.00
2022-08-14T06:16:00,lib,112.00
2022-08-14T06:17:00,lib,99.00
2022-08-14T06:18:00,lib,101.00
2022-08-14T06:19:00,lib,96.00
2022-08-14T06:20:00,lib,94.00
2022-08-14T06:21:00,lib,94.00
2022-08-14T06:22:00,lib,81.00
2022-08-14T06:23:00,lib,82.00
2022-08-14T06:24:00,lib,84.00
2022-08-14T06:25:00,lib,115.00
2022-08-14T06:26:00,lib,102.00
2022-08-14T06:27:00,lib,105.00
2022-08-14T06:28:00,lib,98.00
2022-08-14T06:29:00,lib,95.00
2022-08-14T06:30:00,lib,83.00
2022-08-14T06:31:00,lib,128.00
2022-08-14T06:32:00,lib,131.00
2022-08-14T06:33:00,lib,138.00
2022-08-14T06:34:00,lib,153.00
2022-08-14T06:35:00,lib,163.00
2022-08-14T06:36:00,lib,161.00
2022-08-14T06:37:00,lib,157.00
2022-08-14T06:38:00,lib,161.00
2022-08-14T06:39:00,lib,145.00
2022-08-14T06:40:00,lib,148.00
2022-08-14T06:41:00,lib,148.00
2022-08-14T06:42:00,lib,150.00
2022-08-14T06:43:00,lib,155.00
2022-08-14T06:44:00,lib,152.00
2022-08-14T06:45:00,lib,142.00
2022-08-14T06:46:00,lib,141.00
2022-08-14T06:47:00,lib,143.00
2022-08-14T06:48:00,lib,143.00
2022-08-14T06:49:00,lib,158.00
2022-08-14T06:50:00,lib,148.00
2022-08-14T06:51:00,lib,151.00
2022-08-14T06:52:00,lib,158.00
2022-08-14T06:53:00,lib,138.00
2022-08-14T06:54:00,lib,143.00
2022-08-14T06:55:00,lib,140.00
2022-08-14T06:56:00,lib,138.00
2022-08-14T06:57:00,lib,141.00
2022-08-14T06:58:00,lib,151.00
2022-08-14T06:59:00,lib,154.00
2022-08-14T07:00:00,lib,151.00
2022-08-14T07:01:00,lib,158.00
2022-08-14T07:02:00,lib,136.00
2022-08-14T07:03:00,lib,142.00
2022-08-14T07:04:00,lib,137.00
2022-08-14T07:05:00,lib,141.00
2022-08-14T07:06:00,lib,148.00
2022-08-14T07:07:00,lib,150.00
2022-08-14T07:08:00,lib,152.00
2022-08-14T07:09:00,lib,138.00
2022-08-14T07:10:00,lib,139.00
2022-08-14T07:11:00,lib,136.00
2022-08-14T07:12:00,lib,141.00
2022-08-14T07:13:00,lib,140.00
2022-08-14T07:14:00,lib,163.00
2022-08-14T07:15:00,lib,150.00
2022-08-14T07:16:00,lib,146.00
2022-08-14T07:17:00,lib,137.00
2022-08-14T07:18:00,lib,139.00
2022-08-14T07:19:00,lib,138.00
2022-08-14T07:20:00,lib,149.00
2022-08-14T07:21:00,lib,152.00
2022-08-14T07:22:00,lib,159.00
2022-08-14T07:23:00,lib,163.00
2022-08-14T07:24:00,lib,161.00
2022-08-14T07:25:00,lib,141.00
2022-08-14T07:26:00,lib,140.00
2022-08-14T07:27:00,lib,152.00
2022-08-14T07:28:00,lib,136.00
2022-08-14T07:29:00,lib,140.00
2022-08-14T07:30:00,lib,144.00
2022-08-14T07:31:00,lib,148.00
2022-08-14T07:32:00,lib,149.00
2022-08-14T07:33:00,lib,139.00
2022-08-14T07:34:00,lib,147.00
2022-08-14T07:35:00,lib,150.00
2022-08-14T07:36:00,lib,136.00
2022-08-14T07:37:00,lib,140.00
2022-08-14T07:38:00,lib,161.00
2022-08-14T07:39:00,lib,165.00
2022-08-14T07:40:00,lib,223.00
2022-08-14T07:41:00,lib,225.00
2022-08-14T07:42:00,lib,243.00
2022-08-14T07:43:00,lib,243.00
2022-08-14T07:44:00,lib,237.00
2022-08-14T07:45:00,lib,242.00
2022-08-14T07:46:00,lib,244.00
2022-08-14T07:47:00,lib,253.00
2022-08-14T07:48:00,lib,246.00
2022-08-14T07:49:00,lib,258.00
2022-08-14T07:50:00,lib,255.00
2022-08-14T07:51:00,lib,261.00
2022-08-14T07:52:00,lib,247.00
2022-08-14T07:53:00,lib,225.00
